{"data":{"norad_id":69272,"intl_designator":"2026-118F","name":"KUIPER-00572","alt_names":[],"object_type":"PAYLOAD","status":"ACTIVE","operator":null,"country":"US","launch_date":"2026-05-29","launch_site_code":"AFETR","launch_vehicle":null,"mission":null,"orbit_class":"UNKNOWN","rcs_meters":null,"size_class":null,"mass_kg":null,"dimensions":null,"purposes":[],"wikipedia_slug":null,"has_3d_model":false,"image_url":null,"decayed_at":null,"tle_current":{"epoch":"2026-09-19T22:52:39.387360Z","epoch_age_seconds":78093,"freshness":"FRESH","line1":"1 69272U 26118F   26262.95323365  .00002426  00000+0  34702-3 0  9990","line2":"2 69272  51.9021 339.1019 0000315  67.8803 292.2192 14.79949747 18224","mean_motion":14.79949747,"eccentricity":3.15e-5,"inclination_deg":51.9021,"raan_deg":339.1019,"arg_perigee_deg":67.8803,"mean_anomaly_deg":292.2192,"bstar":0.00034702,"rev_number":1822,"period_min":97.300601112911,"perigee_km":629.26202352188,"apogee_km":629.70350356699,"semimajor_km":7007.6197635444,"source":"CELESTRAK","updated_at":"2026-09-20T09:00:24.777017Z"}}}